Location: Althorst
(53.6379°N, 10.7715°E)
Time: 18:27:50
(UTC+00:00)

BREEZE-M R/B - Pass Details

Date: 10 December 2019
Orbit: 309 x 4546 km, 49.7° (Epoch: 28 January)

Event Time Altitude Azimuth Distance (km) Brightness Sun altitude
Rises 18:03:14 0° 275° (W) 3,553 8.2 -26.1°
Reaches altitude 10° 18:06:38 10° 267° (W) 2,078 6.8 -26.6°
Enters shadow 18:09:41 29° 232° (SW) 921 4.4 -27.1°
